Location: Garbet
(42.8837°N, 1.2115°E)
Time: 15:18:37
(UTC+00:00)

Cosmos 2333 Rocket - Pass Details

Date: 13 December 2025
Orbit: 838 x 865 km, 70.8° (Epoch: 19 January)

Event Time Altitude Azimuth Distance (km) Brightness Sun altitude
Rises 18:23:42 0° 175° (S) 3,409 5.4 -21.6°
Reaches altitude 10° 18:26:21 10° 165° (SSE) 2,482 4.6 -22.1°
Enters shadow 18:29:33 27° 137° (SE) 1,608 3.4 -22.6°
